Regional Weather Roundup
Issued by NWS

Home | Current Version | Previous Version | Graphics & Text | Print | Product List | Glossary On
Versions: 1 2 3 4 5 6 7 8 9 10 11 12 13 14 15 16 17 18 19 20 21 22 23 24 25 26 27 28 29 30 31 32 33 34 35 36 37 38 39 40 41 42 43 44 45 46 47 48 49 50
000
ASUS45 KSLC 271410
RWRUT

UTAH REGIONAL WEATHER ROUNDUP
NATIONAL WEATHER SERVICE SALT LAKE CITY UT
800 AM MDT MON MAR 27 2017

UTZ001>011-023>025-271500-

NORTHERN UTAH

CITY           SKY/WX    TMP DP  RH WIND       PRES   REMARKS
BRIGHAM CITY     N/A     41  36  81 N3        29.88R
DUGWAY         MOCLDY    43  37  80 W8        29.86
HILL AFB       CLOUDY    44  35  69 SE6       29.87R
LOGAN          CLOUDY    41  35  79 E5        29.88R
OGDEN          CLOUDY    45  35  68 S12       29.87R
SALT LAKE CITY MOCLDY    46  38  73 S6        29.88R
WENDOVER       CLOUDY    45  37  73 W7        29.88R
HEBER CITY     CLOUDY    37  34  87 CALM      29.91S

$$

UTZ011>015-024>027-271500-

CENTRAL/NORTHEAST UTAH

CITY           SKY/WX    TMP DP  RH WIND       PRES   REMARKS
PROVO AIRPORT  LGT RAIN  44  41  89 CALM      29.90F
MOAB/CANYONLAN MOCLDY    46  28  49 CALM      29.87S
DELTA          PTCLDY    43  34  70 S6        29.85R
PRICE          MOCLDY    39  31  72 NE6       29.90S WCI  35
ROOSEVELT      CLOUDY    43  34  70 N7        29.95R
VERNAL         CLOUDY    42  34  73 CALM      29.93R

$$

UTZ013>016-019>022-027-271500-

SOUTHERN UTAH

CITY           SKY/WX    TMP DP  RH WIND       PRES   REMARKS
BRYCE CANYON   CLOUDY    34  28  79 CALM      29.95R
CEDAR CITY     CLOUDY    44  33  65 SW5       29.86F
MILFORD        LGT RAIN  42  35  76 S5        29.89R
ST GEORGE      CLOUDY    51  36  56 CALM      29.85R
HANKSVILLE     CLOUDY    43  30  61 NW3       29.91R
BLANDING       CLOUDY    40  26  55 NE3       30.03S

$$

REGIONAL REPORTS     COLORADO/ARIZONA

CITY           SKY/WX    TMP DP  RH WIND       PRES   REMARKS
CRAIG, CO      CLOUDY    34  28  79 W5        29.96S WCI  30
GRAND JUNCTION MOCLDY    46  29  51 SE15      29.90F
RIFLE, CO      CLOUDY    39  30  70 SE5       29.94F
MONTROSE, CO   PTSUNNY   41  29  62 SE10      29.97S
CORTEZ, CO     CLOUDY    31  29  92 CALM      29.98S
COLORADO CITY  CLOUDY    46  34  61 CALM      29.92S
PAGE, AZ       PTCLDY    48  33  56 CALM      29.89S
GRAND CANYON   CLOUDY    33  30  88 CALM      29.98F
KINGMAN, AZ    PTCLDY    50  26  39 S12       29.89R
FLAGSTAFF, AZ  CLOUDY    35  29  78 CALM      30.01R

$$

REGIONAL REPORTS    NEVADA/IDAHO/WYOMING

CITY           SKY/WX    TMP DP  RH WIND       PRES   REMARKS
LAS VEGAS, NV  PTCLDY    58  34  40 SW9       29.78R
ELY, NY        CLOUDY    33  33 100 NW6       29.92R WCI  28
ELKO, NV       FLURRIES  35  32  88 S7        29.94R WCI  29
POCATELLO, ID  CLOUDY    40  39  97 SW13      29.90R WCI  32
BURLEY, ID     CLOUDY    39  35  86 SW7       29.90R WCI  34
EVANSTON, WY   CLOUDY    33  27  78 S7        29.92S WCI  27
ROCK SPRINGS,  CLOUDY    38  26  62 SE8       29.93S WCI  32
KEMMERER, WY     N/A     30  27  86 CALM      29.93R

$$



USA.gov is the U.S. government's official web portal to all federal, state and local government web resources and services.